Location: Songkhla
(7.2000°N, 100.6000°E)
Time: 14:13:22
(UTC+07:00)

First-Move - Visible Passes

Search period start: 29 July 2021 00:00
Search period end: 08 August 2021 00:00
Orbit: 575 x 666 km, 97.6° (Epoch: 28 July)

Date Brightness Start Highest point End Pass type
(mag) Time Alt. Az. Time Alt. Az. Time Alt. Az.
29 Jul ? 04:12:51 10° NE 04:16:51 32° E 04:19:27 18° SSE visible
30 Jul ? 04:29:56 10° NNE 04:34:21 56° E 04:37:10 22° S visible
31 Jul ? 04:47:20 10° N 04:51:51 82° W 04:54:52 21° SSW visible
01 Aug ? 05:05:01 10° N 05:09:20 45° WNW 05:12:35 17° SW visible
02 Aug ? 03:48:23 10° ENE 03:50:55 15° E 03:53:06 11° SE visible
02 Aug ? 05:23:02 10° NNW 05:26:47 26° WNW 05:30:17 12° SW visible
03 Aug ? 04:04:40 10° NE 04:08:24 25° E 04:10:49 17° SE visible
03 Aug ? 05:41:36 10° NW 05:44:15 15° WNW 05:46:56 10° WSW visible
04 Aug ? 04:21:34 10° NNE 04:25:54 43° E 04:28:31 22° SSE visible
05 Aug ? 04:38:50 10° NNE 04:43:23 78° ESE 04:46:13 23° S visible
06 Aug ? 04:56:23 10° N 05:00:52 59° WNW 05:03:55 20° SSW visible
07 Aug ? 03:40:57 10° E 03:42:25 11° E 03:43:52 10° ESE visible
07 Aug ? 05:14:15 10° NNW 05:18:20 33° WNW 05:21:36 15° SW visible
